SHIJIAN-6 02A (SJ-6 02A)

Last updated on Mon Jun 22 2026 00:03:38 GMT+0000 (Coordinated Universal Time)

1 29505U 06046A 26172.51111104 .00005700 00000+0 29200-3 0 9996 2 29505 97.6361 213.6105 0004574 114.9503 245.2205 15.16986402 72928
UTC large
Height (km)
Speed (km/s)
/
Latitude / Longitude
Inclination (degrees)
Orbital Period (minutes)
Azimuth
Elevation
Range (km)
Doppler Factor

Next 0 passes for location: London (51.5072 / 0.1276)

No passes found over London.
SHIJIAN-6 02A (SJ-6 02A)